User: anonymous   Login
Location: Unspecified
(0.0000°N, 0.0000°E)
Time: 00:56:28
(UTC+00:00)
Language:

ALOS 2 - Orbit

View from above orbital plane
View from above orbital plane
View from above satellite
View from above satellite

Ground track
Ground track

The orbit is defined by the following mean orbital elements,

1 39766U          26145.61742426 +.00000000 +00000-0 +66969-4 0 00004
2 39766  97.9221 243.1052 0001557  90.0997 270.0393 14.79465548    09
Epoch (UTC): 25 May 2026 14:49:05
Eccentricity: 0.0001557
inclination: 97.9221°
perigee height: 630 km
apogee height: 632 km
right ascension of ascending node: 243.1052°
argument of perigee: 90.0997°
revolutions per day: 14.79465548
mean anomaly at epoch: 270.0393°

The dashed part of the orbit path shows where the satellite is in the earth's shadow,  

DLR